Time,TemperatureF,DewpointF,PressureIn,WindDirection,WindDirectionDegrees,WindSpeedMPH,WindSpeedGustMPH,Humidity,HourlyPrecipIn,Conditions,Clouds,dailyrainin,SoftwareType,DateUTC
2013-09-05 00:13:00,59.0,57.0,29.85,WSW,238,0.0,2.0,93,0.00,,,0.00,,2013-09-05 04:13:00,
2013-09-05 00:24:00,59.0,57.0,29.85,WSW,238,0.0,1.0,94,0.00,,,0.00,,2013-09-05 04:24:00,
2013-09-05 00:44:00,59.0,58.0,29.85,WSW,238,0.0,2.0,95,0.00,,,0.00,,2013-09-05 04:44:00,
2013-09-05 00:53:00,59.0,58.0,29.85,WSW,238,0.0,2.0,95,0.00,,,0.00,,2013-09-05 04:53:00,
2013-09-05 01:13:00,59.0,57.0,29.85,WSW,238,0.0,2.0,94,0.00,,,0.00,,2013-09-05 05:13:00,
2013-09-05 01:23:00,59.0,58.0,29.84,WSW,238,0.0,2.0,95,0.00,,,0.00,,2013-09-05 05:23:00,
2013-09-05 01:43:00,59.0,58.0,29.84,WSW,238,0.0,4.0,95,0.00,,,0.00,,2013-09-05 05:43:00,
2013-09-05 01:52:00,59.0,58.0,29.84,WSW,238,0.0,2.0,95,0.00,,,0.00,,2013-09-05 05:52:00,
2013-09-05 02:13:00,60.0,59.0,29.85,WSW,238,1.0,3.0,95,0.00,,,0.00,,2013-09-05 06:13:00,
2013-09-05 02:22:00,60.0,58.0,29.85,WSW,238,0.0,2.0,93,0.00,,,0.00,,2013-09-05 06:22:00,
2013-09-05 02:52:00,60.0,58.0,29.85,WSW,238,0.0,2.0,94,0.00,,,0.00,,2013-09-05 06:52:00,
2013-09-05 03:12:00,60.0,58.0,29.85,WSW,238,0.0,2.0,94,0.00,,,0.00,,2013-09-05 07:12:00,
2013-09-05 03:23:00,60.0,58.0,29.84,WSW,238,0.0,1.0,94,0.00,,,0.00,,2013-09-05 07:23:00,
2013-09-05 03:42:00,61.0,58.0,29.83,WSW,238,0.0,2.0,90,0.00,,,0.00,,2013-09-05 07:42:00,
2013-09-05 03:52:00,60.0,57.0,29.83,WSW,238,0.0,2.0,91,0.00,,,0.00,,2013-09-05 07:52:00,
2013-09-05 04:12:00,60.0,58.0,29.83,WSW,238,0.0,3.0,92,0.00,,,0.00,,2013-09-05 08:12:00,
2013-09-05 04:22:00,60.0,58.0,29.84,WSW,238,0.0,0.0,93,0.00,,,0.00,,2013-09-05 08:22:00,
2013-09-05 04:42:00,60.0,58.0,29.83,WSW,238,0.0,1.0,94,0.00,,,0.00,,2013-09-05 08:42:00,
2013-09-05 04:52:00,59.0,57.0,29.83,WSW,238,0.0,2.0,94,0.00,,,0.00,,2013-09-05 08:52:00,
2013-09-05 05:11:00,59.0,58.0,29.83,WSW,238,0.0,0.0,95,0.00,,,0.00,,2013-09-05 09:11:00,
2013-09-05 05:22:00,59.0,58.0,29.83,WSW,238,0.0,0.0,95,0.00,,,0.00,,2013-09-05 09:22:00,
2013-09-05 05:43:00,59.0,58.0,29.84,WSW,238,0.0,1.0,95,0.00,,,0.00,,2013-09-05 09:43:00,
2013-09-05 05:54:00,59.0,58.0,29.84,WSW,238,0.0,0.0,95,0.00,,,0.00,,2013-09-05 09:54:00,
2013-09-05 06:12:00,59.0,58.0,29.85,North,7,2.0,9.0,95,0.00,,,0.00,,2013-09-05 10:12:00,
2013-09-05 06:23:00,59.0,56.0,29.86,NNE,12,11.0,15.0,91,0.00,,,0.00,,2013-09-05 10:23:00,
2013-09-05 06:43:00,58.0,56.0,29.85,NNE,31,5.0,13.0,92,0.01,,,0.01,,2013-09-05 10:43:00,
2013-09-05 06:53:00,57.0,55.0,29.87,NNE,12,8.0,12.0,93,0.03,,,0.03,,2013-09-05 10:53:00,
2013-09-05 07:12:00,57.0,56.0,29.89,North,7,7.0,12.0,95,0.04,,,0.04,,2013-09-05 11:12:00,
2013-09-05 07:22:00,56.0,55.0,29.89,NNE,31,8.0,13.0,96,0.07,,,0.07,,2013-09-05 11:22:00,
2013-09-05 07:42:00,56.0,55.0,29.90,NNE,26,7.0,9.0,96,0.06,,,0.07,,2013-09-05 11:42:00,
2013-09-05 07:52:00,56.0,55.0,29.90,North,7,10.0,13.0,97,0.04,,,0.07,,2013-09-05 11:52:00,
2013-09-05 08:13:00,56.0,55.0,29.88,NNE,29,9.0,11.0,97,0.04,,,0.08,,2013-09-05 12:13:00,
2013-09-05 08:22:00,57.0,56.0,29.88,NE,40,9.0,15.0,97,0.01,,,0.08,,2013-09-05 12:22:00,
2013-09-05 08:42:00,56.0,55.0,29.88,NE,48,1.0,9.0,97,0.01,,,0.08,,2013-09-05 12:42:00,
2013-09-05 08:52:00,56.0,55.0,29.90,NE,54,2.0,10.0,97,0.03,,,0.10,,2013-09-05 12:52:00,
2013-09-05 09:12:00,56.0,55.0,29.92,NNE,30,8.0,10.0,97,0.02,,,0.10,,2013-09-05 13:12:00,
2013-09-05 09:22:00,56.0,55.0,29.92,NNE,17,9.0,13.0,96,0.02,,,0.10,,2013-09-05 13:22:00,
2013-09-05 09:53:00,56.0,55.0,29.93,NNE,30,11.0,15.0,96,0.00,,,0.10,,2013-09-05 13:53:00,
2013-09-05 10:12:00,56.0,55.0,29.93,NE,36,5.0,11.0,95,0.01,,,0.11,,2013-09-05 14:12:00,
2013-09-05 10:22:00,56.0,54.0,29.95,NNE,17,9.0,11.0,94,0.01,,,0.11,,2013-09-05 14:22:00,
2013-09-05 10:42:00,56.0,54.0,29.94,NNE,25,8.0,12.0,94,0.01,,,0.11,,2013-09-05 14:42:00,
2013-09-05 10:52:00,56.0,55.0,29.91,ESE,109,1.0,7.0,95,0.02,,,0.12,,2013-09-05 14:52:00,
2013-09-05 11:11:00,55.0,54.0,29.90,East,96,1.0,6.0,95,0.01,,,0.12,,2013-09-05 15:11:00,
2013-09-05 11:22:00,56.0,55.0,29.94,North,7,10.0,13.0,95,0.01,,,0.12,,2013-09-05 15:22:00,
2013-09-05 11:44:00,57.0,55.0,29.93,NNE,17,7.0,10.0,94,0.01,,,0.12,,2013-09-05 15:44:00,
2013-09-05 11:54:00,57.0,54.0,29.93,NNE,25,7.0,11.0,91,0.00,,,0.12,,2013-09-05 15:54:00,
2013-09-05 12:13:00,58.0,54.0,29.93,NNE,25,9.0,12.0,88,0.00,,,0.12,,2013-09-05 16:13:00,
2013-09-05 12:24:00,59.0,55.0,29.93,NNE,27,7.0,10.0,87,0.00,,,0.12,,2013-09-05 16:24:00,
2013-09-05 12:43:00,59.0,54.0,29.94,NNE,27,5.0,9.0,84,0.00,,,0.12,,2013-09-05 16:43:00,
2013-09-05 12:54:00,59.0,52.0,29.94,NNE,23,8.0,11.0,78,0.00,,,0.12,,2013-09-05 16:54:00,
2013-09-05 13:12:00,60.0,53.0,29.93,NNE,21,7.0,10.0,77,0.00,,,0.12,,2013-09-05 17:12:00,
2013-09-05 13:23:00,61.0,52.0,29.93,NNE,21,5.0,8.0,72,0.00,,,0.12,,2013-09-05 17:23:00,
2013-09-05 13:43:00,62.0,52.0,29.93,NNE,21,7.0,9.0,69,0.00,,,0.12,,2013-09-05 17:43:00,
2013-09-05 13:52:00,62.0,51.0,29.94,NNE,23,6.0,10.0,67,0.00,,,0.12,,2013-09-05 17:52:00,
2013-09-05 14:12:00,63.0,51.0,29.93,NNE,23,4.0,7.0,65,0.00,,,0.12,,2013-09-05 18:12:00,
2013-09-05 14:22:00,65.0,53.0,29.94,NNE,23,2.0,5.0,64,0.00,,,0.12,,2013-09-05 18:22:00,
2013-09-05 14:52:00,63.0,49.0,29.94,NNE,21,3.0,5.0,61,0.00,,,0.12,,2013-09-05 18:52:00,
2013-09-05 15:11:00,65.0,51.0,29.94,NNE,12,0.0,4.0,61,0.00,,,0.12,,2013-09-05 19:11:00,
2013-09-05 15:22:00,65.0,50.0,29.95,NNE,12,3.0,5.0,58,0.00,,,0.12,,2013-09-05 19:22:00,
2013-09-05 15:42:00,65.0,51.0,29.95,NNE,12,2.0,6.0,60,0.00,,,0.12,,2013-09-05 19:42:00,
2013-09-05 15:52:00,66.0,50.0,29.95,NNE,12,1.0,6.0,57,0.00,,,0.12,,2013-09-05 19:52:00,
2013-09-05 16:11:00,65.0,48.0,29.95,NNE,12,2.0,6.0,55,0.00,,,0.12,,2013-09-05 20:11:00,
2013-09-05 16:52:00,66.0,49.0,29.95,North,7,2.0,7.0,54,0.00,,,0.12,,2013-09-05 20:52:00,
2013-09-05 17:22:00,64.0,47.0,29.96,North,3,3.0,6.0,53,0.00,,,0.12,,2013-09-05 21:22:00,
2013-09-05 17:54:00,64.0,51.0,29.97,NNW,342,2.0,6.0,62,0.00,,,0.12,,2013-09-05 21:54:00,
2013-09-05 18:13:00,64.0,51.0,29.97,West,280,2.0,7.0,63,0.00,,,0.12,,2013-09-05 22:13:00,
2013-09-05 18:24:00,61.0,50.0,29.97,WSW,244,3.0,9.0,68,0.00,,,0.12,,2013-09-05 22:24:00,
2013-09-05 18:53:00,57.0,51.0,29.99,WSW,237,3.0,7.0,80,0.00,,,0.12,,2013-09-05 22:53:00,
2013-09-05 19:12:00,57.0,51.0,29.99,SW,234,3.0,7.0,81,0.00,,,0.12,,2013-09-05 23:12:00,
2013-09-05 19:22:00,56.0,51.0,30.00,WSW,243,2.0,6.0,83,0.00,,,0.12,,2013-09-05 23:22:00,
2013-09-05 19:53:00,56.0,52.0,30.01,WSW,247,3.0,7.0,85,0.00,,,0.12,,2013-09-05 23:53:00,
2013-09-05 20:12:00,55.0,51.0,30.02,WSW,246,3.0,6.0,87,0.00,,,0.12,,2013-09-06 00:12:00,
2013-09-05 20:22:00,55.0,52.0,30.03,WSW,246,3.0,6.0,89,0.00,,,0.12,,2013-09-06 00:22:00,
2013-09-05 20:42:00,55.0,52.0,30.03,SW,236,3.0,7.0,90,0.00,,,0.12,,2013-09-06 00:42:00,
2013-09-05 20:52:00,54.0,51.0,30.03,SW,235,3.0,5.0,90,0.00,,,0.12,,2013-09-06 00:52:00,
2013-09-05 21:11:00,54.0,51.0,30.04,SW,235,4.0,7.0,91,0.00,,,0.12,,2013-09-06 01:11:00,
2013-09-05 21:22:00,55.0,52.0,30.05,SSW,212,5.0,7.0,91,0.00,,,0.12,,2013-09-06 01:22:00,
2013-09-05 21:42:00,55.0,52.0,30.06,SW,223,2.0,6.0,89,0.00,,,0.12,,2013-09-06 01:42:00,
2013-09-05 21:52:00,55.0,52.0,30.06,SW,225,2.0,6.0,90,0.00,,,0.12,,2013-09-06 01:52:00,
2013-09-05 22:12:00,55.0,52.0,30.07,West,277,1.0,7.0,90,0.00,,,0.12,,2013-09-06 02:12:00,
2013-09-05 22:22:00,56.0,51.0,30.07,NNW,347,3.0,7.0,82,0.00,,,0.12,,2013-09-06 02:22:00,
2013-09-05 22:42:00,56.0,50.0,30.08,North,7,4.0,7.0,81,0.00,,,0.12,,2013-09-06 02:42:00,
2013-09-05 22:52:00,57.0,48.0,30.08,North,7,7.0,12.0,72,0.00,,,0.12,,2013-09-06 02:52:00,
2013-09-05 23:11:00,57.0,48.0,30.08,NNE,12,6.0,10.0,71,0.00,,,0.12,,2013-09-06 03:11:00,
2013-09-05 23:22:00,56.0,46.0,30.08,NNE,17,7.0,9.0,69,0.00,,,0.12,,2013-09-06 03:22:00,
2013-09-05 23:55:00,56.0,46.0,30.09,NNE,17,7.0,11.0,70,0.00,,,0.12,,2013-09-06 03:55:00,